STARLINK-2066 (47673 NORAD) Tracking and Keplerian Element Data

This shows tracking and keplerian element data for the satellite.

Feedback or suggestion? Click here.




ElementValue
Catalog47673
NameSTARLINK-2066
Epoch Orbit282
Epoch Day60.16668981
Epoch Year2021
RAAN36.8498
Inclination53.05
Eccentricity0.0001816
Argument of Perigee99.0728
Mean Anonmoly13.012
Mean Motion15.86471738
Decay Rate0.00060132
L11 47673U 21012BF 21060.16668981 .00060132 00000-0 23490-3 0 9990
L22 47673 53.0500 36.8498 0001816 99.0728 13.0120 15.86471738 2820

Live tracking and technical data element details for STARLINK-2066 (NORAD 47673). STARLINK-2066 can be tracked NOW for your location showing map with azimuth and elevation plus other details from your city location.

Track the satellite on the map from your city or location and see movement details for azimuth, elevation, latitude, longitude, range, height, and movement on the map or in text.







IsCatalogInMostPopularTable: catalog: 47673, numindb: 4
Update: records affected: 1



GetName: 47673 STARLINK-2066

Hit Count: updated at: Mon, 01 Mar 2021 15:38:20 GMT